Wetterdaten: Woche 09.10.17 - 15.10.17 (KW41)
Datum Zeit Temp. I. Temp. A. Feuchte I. Feuchte A. Luftdruck Regen Wind Richtung Sonnenschein UV Solar Taupunkt Windchill Windben
09.10.2017 00:00 23,1 C 5,2 C 66 % 94 % 1018,8 hPa 0,0 l/m 0,0 km/h (0 Bft) N 0,00 h 0,0 UV-I 0 W/m 4,2 C 5,2 C 0,0 km/h (0 Bft)
09.10.2017 01:00 23,1 C 4,3 C 66 % 94 % 1019,0 hPa 0,0 l/m 0,0 km/h (0 Bft) N 0,00 h 0,0 UV-I 0 W/m 3,4 C 4,3 C 0,0 km/h (0 Bft)
09.10.2017 02:00 23,0 C 3,5 C 66 % 94 % 1019,0 hPa 0,0 l/m 0,0 km/h (0 Bft) N 0,00 h 0,0 UV-I 0 W/m 2,6 C 3,5 C 0,0 km/h (0 Bft)
09.10.2017 03:00 22,9 C 2,8 C 67 % 94 % 1018,9 hPa 0,0 l/m 0,0 km/h (0 Bft) N 0,00 h 0,0 UV-I 0 W/m 2,0 C 2,8 C 0,0 km/h (0 Bft)
09.10.2017 04:00 22,8 C 2,2 C 67 % 95 % 1019,1 hPa 0,0 l/m 0,0 km/h (0 Bft) N 0,00 h 0,0 UV-I 0 W/m 1,4 C 2,2 C 0,0 km/h (0 Bft)
09.10.2017 05:00 22,8 C 1,9 C 66 % 95 % 1019,3 hPa 0,0 l/m 0,0 km/h (0 Bft) N 0,00 h 0,0 UV-I 0 W/m 1,2 C 1,9 C 0,0 km/h (0 Bft)
09.10.2017 06:00 22,9 C 1,7 C 65 % 95 % 1019,4 hPa 0,0 l/m 0,0 km/h (0 Bft) N 0,00 h 0,0 UV-I 0 W/m 1,1 C 1,7 C 0,0 km/h (0 Bft)
09.10.2017 07:00 22,9 C 2,0 C 65 % 96 % 1019,5 hPa 0,0 l/m 0,0 km/h (0 Bft) W-SW 0,00 h 0,0 UV-I 0 W/m 1,4 C 2,0 C 0,0 km/h (0 Bft)
09.10.2017 13:00 22,2 C 9,2 C 58 % 82 % 1019,8 hPa 0,0 l/m 2,4 km/h (1 Bft) W-SW 0,30 h 1,2 UV-I 125 W/m 6,2 C 9,2 C 5,8 km/h (2 Bft)
09.10.2017 14:00 22,4 C 9,9 C 58 % 79 % 1019,6 hPa 0,0 l/m 2,4 km/h (1 Bft) W 0,72 h 1,3 UV-I 214 W/m 6,5 C 9,9 C 6,5 km/h (2 Bft)
09.10.2017 15:00 22,6 C 10,0 C 58 % 76 % 1019,4 hPa 0,0 l/m 1,9 km/h (1 Bft) W-SW 0,55 h 1,1 UV-I 195 W/m 6,0 C 10,0 C 6,2 km/h (2 Bft)
09.10.2017 16:00 22,7 C 10,2 C 58 % 74 % 1019,1 hPa 0,0 l/m 1,4 km/h (1 Bft) W-SW 0,37 h 0,7 UV-I 157 W/m 5,8 C 10,2 C 4,1 km/h (1 Bft)
09.10.2017 17:00 22,7 C 10,0 C 58 % 76 % 1018,8 hPa 0,0 l/m 1,8 km/h (1 Bft) W-SW 0,00 h 0,0 UV-I 33 W/m 6,0 C 9,9 C 4,5 km/h (1 Bft)
09.10.2017 18:00 22,6 C 9,2 C 59 % 81 % 1019,0 hPa 0,0 l/m 0,8 km/h (0 Bft) W 0,00 h 0,0 UV-I 12 W/m 6,2 C 9,2 C 2,6 km/h (1 Bft)
09.10.2017 19:00 22,5 C 8,8 C 58 % 85 % 1019,1 hPa 0,0 l/m 0,0 km/h (0 Bft) N 0,00 h 0,0 UV-I 0 W/m 6,4 C 8,8 C 0,0 km/h (0 Bft)
09.10.2017 20:00 22,6 C 8,6 C 59 % 87 % 1019,0 hPa 0,0 l/m 2,7 km/h (1 Bft) N 0,00 h 0,0 UV-I 0 W/m 6,5 C 8,6 C 6,2 km/h (2 Bft)
09.10.2017 21:00 22,6 C 8,2 C 59 % 88 % 1019,0 hPa 0,0 l/m 1,1 km/h (1 Bft) W 0,00 h 0,0 UV-I 0 W/m 6,3 C 8,2 C 3,0 km/h (1 Bft)
09.10.2017 22:00 22,5 C 7,4 C 59 % 90 % 1019,1 hPa 0,0 l/m 0,0 km/h (0 Bft) N 0,00 h 0,0 UV-I 0 W/m 5,8 C 7,4 C 0,0 km/h (0 Bft)
09.10.2017 23:00 22,4 C 7,2 C 59 % 93 % 1018,9 hPa 0,0 l/m 0,6 km/h (0 Bft) SW 0,00 h 0,0 UV-I 0 W/m 6,2 C 7,2 C 2,3 km/h (1 Bft)
10.10.2017 00:00 22,7 C 8,1 C 61 % 94 % 1018,6 hPa 0,0 l/m 0,1 km/h (0 Bft) SW 0,00 h 0,0 UV-I 0 W/m 7,2 C 8,1 C 0,7 km/h (0 Bft)
10.10.2017 01:00 22,8 C 8,3 C 61 % 94 % 1018,4 hPa 0,0 l/m 1,4 km/h (1 Bft) S-SW 0,00 h 0,0 UV-I 0 W/m 7,4 C 8,3 C 4,6 km/h (1 Bft)
10.10.2017 02:00 22,9 C 8,6 C 61 % 94 % 1018,0 hPa 0,0 l/m 1,2 km/h (1 Bft) SW 0,00 h 0,0 UV-I 0 W/m 7,7 C 8,6 C 3,9 km/h (1 Bft)
10.10.2017 03:00 22,9 C 8,7 C 62 % 95 % 1017,5 hPa 0,0 l/m 2,2 km/h (1 Bft) SW 0,00 h 0,0 UV-I 0 W/m 7,9 C 8,6 C 7,1 km/h (2 Bft)
10.10.2017 04:00 22,9 C 8,8 C 62 % 95 % 1017,2 hPa 0,0 l/m 2,5 km/h (1 Bft) SW 0,00 h 0,0 UV-I 0 W/m 8,1 C 8,8 C 6,9 km/h (2 Bft)
10.10.2017 05:00 22,9 C 9,0 C 62 % 96 % 1017,1 hPa 0,0 l/m 2,1 km/h (1 Bft) S-SW 0,00 h 0,0 UV-I 0 W/m 8,4 C 9,0 C 5,7 km/h (1 Bft)
10.10.2017 06:00 23,1 C 9,2 C 62 % 96 % 1017,0 hPa 0,0 l/m 1,5 km/h (1 Bft) SW 0,00 h 0,0 UV-I 0 W/m 8,6 C 9,2 C 4,7 km/h (1 Bft)
10.10.2017 07:00 23,2 C 9,4 C 61 % 96 % 1017,1 hPa 0,0 l/m 1,5 km/h (1 Bft) SW 0,00 h 0,0 UV-I 7 W/m 8,8 C 9,4 C 5,2 km/h (1 Bft)
10.10.2017 08:00 22,1 C 9,4 C 58 % 95 % 1017,2 hPa 0,2 l/m 1,9 km/h (1 Bft) W-SW 0,00 h 0,0 UV-I 31 W/m 8,7 C 9,3 C 5,4 km/h (1 Bft)
10.10.2017 09:00 18,5 C 9,8 C 60 % 94 % 1017,7 hPa 0,0 l/m 3,7 km/h (1 Bft) W-SW 0,00 h 0,5 UV-I 57 W/m 8,9 C 9,6 C 9,4 km/h (2 Bft)
10.10.2017 10:00 19,7 C 10,2 C 63 % 91 % 1017,8 hPa 0,0 l/m 4,3 km/h (1 Bft) W-SW 0,02 h 0,7 UV-I 78 W/m 8,9 C 10,0 C 10,6 km/h (2 Bft)
10.10.2017 11:00 22,1 C 10,4 C 59 % 91 % 1018,0 hPa 0,0 l/m 2,4 km/h (1 Bft) SW 0,00 h 0,4 UV-I 40 W/m 9,1 C 10,4 C 6,7 km/h (2 Bft)
10.10.2017 12:00 22,5 C 10,3 C 59 % 93 % 1018,0 hPa 0,0 l/m 1,8 km/h (1 Bft) SW 0,00 h 0,6 UV-I 65 W/m 9,2 C 10,3 C 5,5 km/h (1 Bft)
10.10.2017 13:00 22,6 C 10,8 C 59 % 92 % 1017,6 hPa 0,0 l/m 3,4 km/h (1 Bft) SW 0,15 h 1,0 UV-I 131 W/m 9,6 C 10,7 C 9,5 km/h (2 Bft)
10.10.2017 14:00 22,7 C 11,0 C 59 % 92 % 1017,4 hPa 0,0 l/m 3,3 km/h (1 Bft) S-SW 0,00 h 0,6 UV-I 51 W/m 9,7 C 10,8 C 9,6 km/h (2 Bft)
10.10.2017 15:00 22,7 C 10,7 C 60 % 94 % 1017,4 hPa 0,2 l/m 2,6 km/h (1 Bft) S-SW 0,00 h 0,0 UV-I 23 W/m 9,7 C 10,6 C 8,0 km/h (2 Bft)
10.10.2017 16:00 22,7 C 10,4 C 60 % 94 % 1017,5 hPa 0,0 l/m 3,7 km/h (1 Bft) W-SW 0,00 h 0,0 UV-I 15 W/m 9,6 C 10,2 C 9,7 km/h (2 Bft)
10.10.2017 17:00 22,6 C 10,3 C 61 % 95 % 1017,8 hPa 0,0 l/m 2,8 km/h (1 Bft) W-SW 0,00 h 0,0 UV-I 8 W/m 9,6 C 10,2 C 7,2 km/h (2 Bft)
10.10.2017 18:00 22,7 C 10,3 C 62 % 95 % 1018,4 hPa 0,0 l/m 3,6 km/h (1 Bft) W-SW 0,00 h 0,0 UV-I 6 W/m 9,6 C 10,1 C 9,5 km/h (2 Bft)
10.10.2017 19:00 22,7 C 10,4 C 62 % 96 % 1018,7 hPa 0,0 l/m 3,7 km/h (1 Bft) W-SW 0,00 h 0,0 UV-I 0 W/m 9,8 C 10,3 C 9,4 km/h (2 Bft)
10.10.2017 20:00 22,7 C 10,5 C 62 % 95 % 1018,9 hPa 0,0 l/m 1,1 km/h (1 Bft) W-SW 0,00 h 0,0 UV-I 0 W/m 9,8 C 10,5 C 4,3 km/h (1 Bft)
10.10.2017 21:00 22,8 C 10,7 C 62 % 95 % 1019,2 hPa 0,0 l/m 1,1 km/h (1 Bft) W-SW 0,00 h 0,0 UV-I 0 W/m 9,9 C 10,7 C 4,3 km/h (1 Bft)
10.10.2017 22:00 22,8 C 10,8 C 62 % 95 % 1019,2 hPa 0,0 l/m 0,8 km/h (0 Bft) W-SW 0,00 h 0,0 UV-I 0 W/m 10,0 C 10,8 C 2,5 km/h (1 Bft)
10.10.2017 23:00 22,8 C 10,8 C 63 % 95 % 1019,4 hPa 0,0 l/m 0,0 km/h (0 Bft) SW 0,00 h 0,0 UV-I 0 W/m 10,1 C 10,8 C 0,3 km/h (0 Bft)
11.10.2017 00:00 23,1 C 10,9 C 63 % 96 % 1019,4 hPa 0,4 l/m 0,0 km/h (0 Bft) N 0,00 h 0,0 UV-I 0 W/m 10,2 C 10,9 C 0,5 km/h (0 Bft)
11.10.2017 01:00 23,1 C 10,9 C 64 % 96 % 1019,4 hPa 0,0 l/m 0,2 km/h (0 Bft) SW 0,00 h 0,0 UV-I 0 W/m 10,3 C 10,9 C 0,8 km/h (0 Bft)
11.10.2017 02:00 23,1 C 10,9 C 64 % 97 % 1019,4 hPa 0,0 l/m 0,1 km/h (0 Bft) SW 0,00 h 0,0 UV-I 0 W/m 10,4 C 10,9 C 0,5 km/h (0 Bft)
11.10.2017 03:00 23,1 C 11,1 C 64 % 97 % 1019,4 hPa 0,0 l/m 0,6 km/h (0 Bft) SW 0,00 h 0,0 UV-I 0 W/m 10,6 C 11,1 C 3,2 km/h (1 Bft)
11.10.2017 04:00 23,1 C 11,1 C 64 % 97 % 1019,1 hPa 0,0 l/m 0,2 km/h (0 Bft) SW 0,00 h 0,0 UV-I 0 W/m 10,6 C 11,1 C 1,8 km/h (1 Bft)
11.10.2017 05:00 23,1 C 11,0 C 64 % 97 % 1019,0 hPa 0,0 l/m 0,5 km/h (0 Bft) S 0,00 h 0,0 UV-I 0 W/m 10,5 C 11,0 C 2,4 km/h (1 Bft)
11.10.2017 06:00 23,2 C 11,0 C 63 % 96 % 1019,0 hPa 0,0 l/m 0,4 km/h (0 Bft) S-SW 0,00 h 0,0 UV-I 0 W/m 10,4 C 11,0 C 2,0 km/h (1 Bft)
11.10.2017 07:00 22,8 C 11,1 C 61 % 96 % 1019,0 hPa 0,0 l/m 0,9 km/h (0 Bft) SW 0,00 h 0,0 UV-I 0 W/m 10,5 C 11,1 C 3,9 km/h (1 Bft)
11.10.2017 08:00 20,3 C 11,1 C 62 % 96 % 1019,3 hPa 0,0 l/m 1,8 km/h (1 Bft) SW 0,00 h 0,0 UV-I 13 W/m 10,5 C 11,1 C 6,8 km/h (2 Bft)
11.10.2017 09:00 20,5 C 11,3 C 63 % 96 % 1019,6 hPa 0,0 l/m 1,1 km/h (1 Bft) SW 0,00 h 0,0 UV-I 22 W/m 10,7 C 11,3 C 4,0 km/h (1 Bft)
11.10.2017 10:00 21,5 C 11,6 C 60 % 95 % 1019,7 hPa 0,0 l/m 1,0 km/h (0 Bft) S 0,02 h 0,7 UV-I 64 W/m 10,8 C 11,6 C 4,1 km/h (1 Bft)
11.10.2017 11:00 21,6 C 12,0 C 57 % 93 % 1020,0 hPa 0,0 l/m 1,5 km/h (1 Bft) SW 0,00 h 0,7 UV-I 54 W/m 10,8 C 12,0 C 5,5 km/h (1 Bft)
11.10.2017 12:00 20,5 C 12,1 C 60 % 92 % 1020,0 hPa 0,2 l/m 1,2 km/h (1 Bft) SW 0,00 h 0,7 UV-I 72 W/m 10,8 C 12,0 C 3,8 km/h (1 Bft)
11.10.2017 13:00 20,8 C 12,9 C 61 % 89 % 1019,7 hPa 0,0 l/m 1,7 km/h (1 Bft) SW 0,10 h 1,0 UV-I 124 W/m 11,0 C 12,9 C 5,4 km/h (1 Bft)
11.10.2017 14:00 22,4 C 13,3 C 60 % 82 % 1019,5 hPa 0,0 l/m 4,6 km/h (1 Bft) W-SW 0,10 h 0,8 UV-I 96 W/m 10,4 C 13,1 C 11,2 km/h (2 Bft)
11.10.2017 15:00 22,8 C 13,5 C 58 % 81 % 1019,3 hPa 0,0 l/m 4,1 km/h (1 Bft) W-SW 0,00 h 0,7 UV-I 74 W/m 10,2 C 13,4 C 10,0 km/h (2 Bft)
11.10.2017 16:00 22,9 C 13,6 C 58 % 81 % 1019,2 hPa 0,0 l/m 3,3 km/h (1 Bft) SW 0,03 h 0,5 UV-I 106 W/m 10,3 C 13,5 C 9,2 km/h (2 Bft)
11.10.2017 17:00 23,0 C 13,6 C 58 % 80 % 1019,1 hPa 0,0 l/m 1,7 km/h (1 Bft) W-SW 0,00 h 0,0 UV-I 61 W/m 10,1 C 13,6 C 5,8 km/h (2 Bft)
11.10.2017 18:00 21,3 C 13,1 C 59 % 82 % 1019,1 hPa 0,0 l/m 0,3 km/h (0 Bft) S 0,00 h 0,0 UV-I 16 W/m 10,2 C 13,1 C 1,5 km/h (1 Bft)
11.10.2017 19:00 22,4 C 12,7 C 62 % 85 % 1019,0 hPa 0,0 l/m 0,1 km/h (0 Bft) S 0,00 h 0,0 UV-I 0 W/m 10,2 C 12,7 C 0,6 km/h (0 Bft)
11.10.2017 20:00 22,9 C 12,4 C 62 % 86 % 1018,8 hPa 0,0 l/m 0,0 km/h (0 Bft) N 0,00 h 0,0 UV-I 0 W/m 10,1 C 12,4 C 0,0 km/h (0 Bft)
11.10.2017 21:00 22,9 C 11,8 C 61 % 88 % 1019,0 hPa 0,0 l/m 0,0 km/h (0 Bft) N 0,00 h 0,0 UV-I 0 W/m 9,8 C 11,8 C 0,0 km/h (0 Bft)
11.10.2017 22:00 22,9 C 11,4 C 62 % 89 % 1019,0 hPa 0,0 l/m 0,0 km/h (0 Bft) N 0,00 h 0,0 UV-I 0 W/m 9,7 C 11,4 C 0,0 km/h (0 Bft)
11.10.2017 23:00 23,0 C 11,0 C 63 % 91 % 1019,0 hPa 0,0 l/m 0,0 km/h (0 Bft) N 0,00 h 0,0 UV-I 0 W/m 9,5 C 11,0 C 0,0 km/h (0 Bft)
12.10.2017 00:00 23,1 C 10,5 C 64 % 91 % 1018,9 hPa 0,0 l/m 0,0 km/h (0 Bft) N 0,00 h 0,0 UV-I 0 W/m 9,1 C 10,5 C 0,0 km/h (0 Bft)
12.10.2017 01:00 23,2 C 10,0 C 64 % 93 % 1018,6 hPa 0,0 l/m 0,1 km/h (0 Bft) S 0,00 h 0,0 UV-I 0 W/m 8,9 C 10,0 C 0,4 km/h (0 Bft)
12.10.2017 02:00 23,2 C 9,7 C 64 % 94 % 1018,4 hPa 0,0 l/m 0,0 km/h (0 Bft) N 0,00 h 0,0 UV-I 0 W/m 8,8 C 9,7 C 0,0 km/h (0 Bft)
12.10.2017 03:00 23,2 C 9,2 C 65 % 94 % 1018,2 hPa 0,0 l/m 0,0 km/h (0 Bft) N 0,00 h 0,0 UV-I 0 W/m 8,3 C 9,2 C 0,0 km/h (0 Bft)
12.10.2017 04:00 23,0 C 9,1 C 65 % 95 % 1018,2 hPa 0,0 l/m 0,0 km/h (0 Bft) N 0,00 h 0,0 UV-I 0 W/m 8,4 C 9,1 C 0,1 km/h (0 Bft)
12.10.2017 05:00 22,9 C 9,3 C 66 % 96 % 1018,2 hPa 0,0 l/m 0,0 km/h (0 Bft) SW 0,00 h 0,0 UV-I 0 W/m 8,6 C 9,3 C 0,2 km/h (0 Bft)
12.10.2017 06:00 23,1 C 9,4 C 65 % 96 % 1018,2 hPa 0,0 l/m 0,0 km/h (0 Bft) N 0,00 h 0,0 UV-I 0 W/m 8,8 C 9,4 C 0,1 km/h (0 Bft)
12.10.2017 07:00 23,1 C 9,2 C 64 % 96 % 1018,5 hPa 0,0 l/m 0,0 km/h (0 Bft) N 0,00 h 0,0 UV-I 18 W/m 8,6 C 9,2 C 0,0 km/h (0 Bft)
12.10.2017 08:00 23,0 C 9,7 C 63 % 96 % 1018,9 hPa 0,0 l/m 0,3 km/h (0 Bft) S 0,00 h 0,0 UV-I 37 W/m 9,1 C 9,7 C 1,5 km/h (1 Bft)
12.10.2017 09:00 22,6 C 10,2 C 61 % 96 % 1019,6 hPa 0,0 l/m 0,9 km/h (0 Bft) SW 0,00 h 0,0 UV-I 20 W/m 9,5 C 10,2 C 3,9 km/h (1 Bft)
12.10.2017 10:00 20,4 C 11,2 C 61 % 94 % 1020,0 hPa 0,0 l/m 1,8 km/h (1 Bft) S-SW 0,37 h 1,0 UV-I 185 W/m 10,2 C 11,1 C 5,4 km/h (1 Bft)
12.10.2017 11:00 21,1 C 13,9 C 61 % 84 % 1020,3 hPa 0,0 l/m 4,4 km/h (1 Bft) SW 0,65 h 1,4 UV-I 319 W/m 11,2 C 13,6 C 10,1 km/h (2 Bft)
12.10.2017 12:00 21,4 C 13,7 C 59 % 85 % 1020,8 hPa 0,0 l/m 3,1 km/h (1 Bft) W-SW 0,38 h 1,1 UV-I 132 W/m 11,3 C 13,4 C 7,3 km/h (2 Bft)
12.10.2017 13:00 22,3 C 14,2 C 60 % 83 % 1021,1 hPa 0,0 l/m 6,3 km/h (2 Bft) W-SW 0,28 h 1,3 UV-I 98 W/m 11,5 C 13,6 C 14,2 km/h (3 Bft)
12.10.2017 14:00 22,9 C 15,0 C 59 % 80 % 1021,3 hPa 0,0 l/m 6,4 km/h (2 Bft) W-SW 0,62 h 1,1 UV-I 186 W/m 11,5 C 14,1 C 14,4 km/h (3 Bft)
12.10.2017 15:00 23,1 C 15,3 C 60 % 75 % 1021,5 hPa 0,0 l/m 10,3 km/h (2 Bft) W-SW 0,50 h 1,1 UV-I 179 W/m 11,0 C 13,4 C 20,0 km/h (4 Bft)
12.10.2017 16:00 23,1 C 15,3 C 59 % 73 % 1021,7 hPa 0,0 l/m 9,1 km/h (2 Bft) W-SW 0,40 h 0,7 UV-I 150 W/m 10,5 C 13,7 C 18,0 km/h (3 Bft)
12.10.2017 17:00 23,1 C 14,6 C 60 % 74 % 1022,4 hPa 0,0 l/m 3,0 km/h (1 Bft) W-SW 0,00 h 0,0 UV-I 39 W/m 9,9 C 14,2 C 7,8 km/h (2 Bft)
12.10.2017 18:00 23,0 C 13,7 C 62 % 79 % 1023,0 hPa 0,0 l/m 0,5 km/h (0 Bft) SW 0,00 h 0,0 UV-I 10 W/m 10,1 C 13,7 C 2,0 km/h (1 Bft)
12.10.2017 19:00 23,0 C 12,9 C 62 % 82 % 1023,4 hPa 0,0 l/m 0,5 km/h (0 Bft) SW 0,00 h 0,0 UV-I 0 W/m 10,0 C 12,9 C 2,4 km/h (1 Bft)
12.10.2017 20:00 22,9 C 12,4 C 62 % 85 % 1023,8 hPa 0,0 l/m 0,6 km/h (0 Bft) S-SW 0,00 h 0,0 UV-I 0 W/m 10,0 C 12,4 C 2,6 km/h (1 Bft)
12.10.2017 21:00 22,9 C 11,8 C 62 % 88 % 1024,2 hPa 0,0 l/m 0,2 km/h (0 Bft) SW 0,00 h 0,0 UV-I 0 W/m 9,9 C 11,8 C 1,4 km/h (1 Bft)
12.10.2017 22:00 22,9 C 11,7 C 63 % 90 % 1024,7 hPa 0,0 l/m 0,6 km/h (0 Bft) S-SW 0,00 h 0,0 UV-I 0 W/m 10,1 C 11,7 C 3,1 km/h (1 Bft)
12.10.2017 23:00 22,8 C 11,3 C 63 % 91 % 1025,2 hPa 0,0 l/m 0,1 km/h (0 Bft) S 0,00 h 0,0 UV-I 0 W/m 9,9 C 11,3 C 0,4 km/h (0 Bft)
13.10.2017 00:00 23,0 C 11,1 C 64 % 93 % 1025,2 hPa 0,0 l/m 0,2 km/h (0 Bft) S 0,00 h 0,0 UV-I 0 W/m 10,0 C 11,1 C 1,0 km/h (0 Bft)
13.10.2017 01:00 23,1 C 11,1 C 64 % 93 % 1025,3 hPa 0,0 l/m 0,5 km/h (0 Bft) S-SW 0,00 h 0,0 UV-I 0 W/m 10,0 C 11,1 C 2,9 km/h (1 Bft)
13.10.2017 02:00 23,1 C 10,9 C 64 % 93 % 1025,2 hPa 0,0 l/m 1,5 km/h (1 Bft) SW 0,00 h 0,0 UV-I 0 W/m 9,9 C 10,9 C 5,5 km/h (1 Bft)
13.10.2017 03:00 23,2 C 11,0 C 65 % 93 % 1025,4 hPa 0,0 l/m 0,4 km/h (0 Bft) W-SW 0,00 h 0,0 UV-I 0 W/m 9,9 C 11,0 C 1,9 km/h (1 Bft)
13.10.2017 04:00 23,2 C 10,9 C 65 % 94 % 1025,3 hPa 0,0 l/m 0,2 km/h (0 Bft) SW 0,00 h 0,0 UV-I 0 W/m 9,9 C 10,9 C 1,0 km/h (0 Bft)
13.10.2017 05:00 23,2 C 10,7 C 64 % 94 % 1025,7 hPa 0,0 l/m 0,1 km/h (0 Bft) SW 0,00 h 0,0 UV-I 0 W/m 9,8 C 10,7 C 1,1 km/h (1 Bft)
13.10.2017 06:00 23,2 C 10,6 C 65 % 94 % 1026,0 hPa 0,0 l/m 0,2 km/h (0 Bft) SW 0,00 h 0,0 UV-I 0 W/m 9,6 C 10,6 C 0,9 km/h (0 Bft)
13.10.2017 07:00 22,9 C 10,6 C 63 % 95 % 1026,1 hPa 0,0 l/m 0,2 km/h (0 Bft) SW 0,00 h 0,0 UV-I 10 W/m 9,9 C 10,6 C 1,3 km/h (1 Bft)
13.10.2017 08:00 20,1 C 10,8 C 61 % 94 % 1026,2 hPa 0,0 l/m 0,1 km/h (0 Bft) SW 0,00 h 0,0 UV-I 53 W/m 10,0 C 10,8 C 0,5 km/h (0 Bft)
13.10.2017 09:00 20,1 C 11,3 C 62 % 94 % 1026,7 hPa 0,0 l/m 0,3 km/h (0 Bft) SW 0,00 h 0,6 UV-I 63 W/m 10,4 C 11,3 C 2,3 km/h (1 Bft)
13.10.2017 10:00 20,5 C 11,8 C 61 % 94 % 1026,9 hPa 0,0 l/m 0,7 km/h (0 Bft) W-SW 0,00 h 0,6 UV-I 47 W/m 10,8 C 11,8 C 2,9 km/h (1 Bft)
13.10.2017 11:00 22,1 C 12,1 C 61 % 95 % 1026,9 hPa 0,0 l/m 1,7 km/h (1 Bft) W-SW 0,22 h 1,0 UV-I 127 W/m 11,4 C 12,1 C 5,1 km/h (1 Bft)
13.10.2017 12:00 22,9 C 13,6 C 60 % 89 % 1026,7 hPa 0,0 l/m 4,5 km/h (1 Bft) W-SW 0,93 h 1,9 UV-I 311 W/m 11,9 C 13,3 C 9,7 km/h (2 Bft)
13.10.2017 13:00 23,1 C 15,7 C 60 % 73 % 1026,2 hPa 0,0 l/m 6,6 km/h (2 Bft) W-SW 0,75 h 2,3 UV-I 431 W/m 11,0 C 15,1 C 14,2 km/h (3 Bft)
13.10.2017 14:00 23,3 C 16,5 C 59 % 69 % 1025,7 hPa 0,0 l/m 5,9 km/h (2 Bft) W-SW 0,92 h 1,7 UV-I 415 W/m 10,8 C 16,0 C 13,2 km/h (3 Bft)
13.10.2017 15:00 23,3 C 16,0 C 59 % 71 % 1026,0 hPa 0,0 l/m 3,5 km/h (1 Bft) W-SW 0,20 h 0,9 UV-I 138 W/m 10,8 C 15,9 C 8,6 km/h (2 Bft)
13.10.2017 16:00 23,3 C 15,5 C 60 % 76 % 1026,0 hPa 0,0 l/m 0,8 km/h (0 Bft) W 0,00 h 0,5 UV-I 58 W/m 11,2 C 15,5 C 2,8 km/h (1 Bft)
13.10.2017 17:00 23,2 C 14,9 C 60 % 80 % 1025,9 hPa 0,0 l/m 0,1 km/h (0 Bft) W-SW 0,00 h 0,0 UV-I 19 W/m 11,6 C 14,9 C 0,8 km/h (0 Bft)
13.10.2017 18:00 23,2 C 14,4 C 61 % 84 % 1026,1 hPa 0,0 l/m 0,0 km/h (0 Bft) N 0,00 h 0,0 UV-I 8 W/m 11,7 C 14,4 C 0,0 km/h (0 Bft)
13.10.2017 19:00 23,2 C 13,8 C 63 % 86 % 1026,3 hPa 0,0 l/m 0,0 km/h (0 Bft) N 0,00 h 0,0 UV-I 0 W/m 11,5 C 13,8 C 0,0 km/h (0 Bft)
13.10.2017 20:00 23,3 C 12,9 C 63 % 87 % 1026,7 hPa 0,0 l/m 0,0 km/h (0 Bft) N 0,00 h 0,0 UV-I 0 W/m 10,9 C 12,9 C 0,0 km/h (0 Bft)
13.10.2017 21:00 23,1 C 11,4 C 64 % 88 % 1027,1 hPa 0,0 l/m 0,0 km/h (0 Bft) N 0,00 h 0,0 UV-I 0 W/m 9,5 C 11,4 C 0,0 km/h (0 Bft)
13.10.2017 22:00 23,0 C 9,8 C 64 % 91 % 1027,4 hPa 0,0 l/m 0,0 km/h (0 Bft) N 0,00 h 0,0 UV-I 0 W/m 8,4 C 9,8 C 0,0 km/h (0 Bft)
13.10.2017 23:00 23,0 C 8,8 C 65 % 92 % 1027,6 hPa 0,0 l/m 0,0 km/h (0 Bft) N 0,00 h 0,0 UV-I 0 W/m 7,5 C 8,8 C 0,0 km/h (0 Bft)
14.10.2017 00:00 23,3 C 8,1 C 66 % 93 % 1027,7 hPa 0,0 l/m 0,0 km/h (0 Bft) N 0,00 h 0,0 UV-I 0 W/m 7,1 C 8,1 C 0,0 km/h (0 Bft)
14.10.2017 01:00 23,3 C 7,1 C 66 % 93 % 1027,8 hPa 0,0 l/m 0,0 km/h (0 Bft) N 0,00 h 0,0 UV-I 0 W/m 6,0 C 7,1 C 0,0 km/h (0 Bft)
14.10.2017 02:00 23,3 C 6,5 C 67 % 93 % 1028,0 hPa 0,0 l/m 0,0 km/h (0 Bft) N 0,00 h 0,0 UV-I 0 W/m 5,4 C 6,5 C 0,0 km/h (0 Bft)
14.10.2017 03:00 23,2 C 6,1 C 66 % 94 % 1028,1 hPa 0,0 l/m 0,0 km/h (0 Bft) N 0,00 h 0,0 UV-I 0 W/m 5,1 C 6,1 C 0,0 km/h (0 Bft)
14.10.2017 04:00 23,2 C 6,4 C 67 % 95 % 1028,2 hPa 0,0 l/m 0,0 km/h (0 Bft) N 0,00 h 0,0 UV-I 0 W/m 5,6 C 6,4 C 0,0 km/h (0 Bft)
14.10.2017 05:00 23,2 C 7,1 C 66 % 96 % 1028,1 hPa 0,0 l/m 0,0 km/h (0 Bft) N 0,00 h 0,0 UV-I 0 W/m 6,5 C 7,1 C 0,0 km/h (0 Bft)
14.10.2017 06:00 23,2 C 7,3 C 66 % 96 % 1028,1 hPa 0,0 l/m 0,0 km/h (0 Bft) N 0,00 h 0,0 UV-I 0 W/m 6,7 C 7,3 C 0,0 km/h (0 Bft)
14.10.2017 07:00 23,4 C 7,0 C 66 % 96 % 1028,2 hPa 0,0 l/m 0,0 km/h (0 Bft) N 0,00 h 0,0 UV-I 11 W/m 6,4 C 7,0 C 0,0 km/h (0 Bft)
14.10.2017 08:00 23,3 C 6,6 C 65 % 96 % 1028,5 hPa 0,0 l/m 0,0 km/h (0 Bft) N 0,00 h 0,0 UV-I 48 W/m 6,0 C 6,6 C 0,0 km/h (0 Bft)
14.10.2017 09:00 23,2 C 8,7 C 65 % 97 % 1029,0 hPa 0,0 l/m 0,0 km/h (0 Bft) N 0,12 h 0,7 UV-I 101 W/m 8,2 C 8,7 C 0,0 km/h (0 Bft)
14.10.2017 10:00 23,1 C 11,4 C 65 % 97 % 1029,2 hPa 0,0 l/m 0,0 km/h (0 Bft) N 0,38 h 0,9 UV-I 149 W/m 10,9 C 11,4 C 0,0 km/h (0 Bft)
14.10.2017 11:00 22,2 C 14,3 C 64 % 93 % 1029,2 hPa 0,0 l/m 0,5 km/h (0 Bft) S 1,00 h 1,6 UV-I 249 W/m 13,2 C 14,3 C 1,9 km/h (1 Bft)
14.10.2017 12:00 22,7 C 17,3 C 60 % 75 % 1028,9 hPa 0,0 l/m 2,9 km/h (1 Bft) W-SW 1,00 h 2,3 UV-I 378 W/m 12,8 C 17,2 C 7,6 km/h (2 Bft)
14.10.2017 13:00 23,3 C 18,2 C 62 % 69 % 1028,5 hPa 0,0 l/m 3,5 km/h (1 Bft) W-SW 0,87 h 2,4 UV-I 415 W/m 12,5 C 18,2 C 8,3 km/h (2 Bft)
14.10.2017 14:00 23,7 C 19,2 C 63 % 66 % 1028,0 hPa 0,0 l/m 3,0 km/h (1 Bft) W-SW 0,82 h 2,1 UV-I 404 W/m 12,7 C 19,2 C 7,2 km/h (2 Bft)
14.10.2017 15:00 23,7 C 19,9 C 61 % 64 % 1027,8 hPa 0,0 l/m 2,3 km/h (1 Bft) W 1,00 h 1,4 UV-I 357 W/m 12,7 C 19,8 C 5,5 km/h (1 Bft)
14.10.2017 16:00 23,7 C 20,1 C 61 % 63 % 1027,5 hPa 0,0 l/m 2,0 km/h (1 Bft) W-SW 0,93 h 0,8 UV-I 223 W/m 12,9 C 20,1 C 5,1 km/h (1 Bft)
14.10.2017 17:00 23,6 C 19,1 C 60 % 66 % 1027,5 hPa 0,0 l/m 0,3 km/h (0 Bft) W-SW 0,00 h 0,5 UV-I 63 W/m 12,7 C 19,1 C 1,4 km/h (1 Bft)
14.10.2017 18:00 23,5 C 17,2 C 60 % 74 % 1027,6 hPa 0,0 l/m 0,0 km/h (0 Bft) N 0,00 h 0,0 UV-I 8 W/m 12,6 C 17,2 C 0,0 km/h (0 Bft)
14.10.2017 19:00 23,6 C 14,8 C 64 % 82 % 1028,0 hPa 0,0 l/m 0,0 km/h (0 Bft) N 0,00 h 0,0 UV-I 0 W/m 11,7 C 14,8 C 0,0 km/h (0 Bft)
14.10.2017 20:00 23,6 C 12,7 C 64 % 87 % 1028,1 hPa 0,0 l/m 0,0 km/h (0 Bft) N 0,00 h 0,0 UV-I 0 W/m 10,6 C 12,7 C 0,0 km/h (0 Bft)
14.10.2017 21:00 23,4 C 11,3 C 64 % 89 % 1028,4 hPa 0,0 l/m 0,0 km/h (0 Bft) N 0,00 h 0,0 UV-I 0 W/m 9,6 C 11,3 C 0,0 km/h (0 Bft)
14.10.2017 22:00 23,4 C 10,2 C 64 % 91 % 1028,8 hPa 0,0 l/m 0,0 km/h (0 Bft) N 0,00 h 0,0 UV-I 0 W/m 8,8 C 10,2 C 0,0 km/h (0 Bft)
14.10.2017 23:00 23,4 C 9,5 C 65 % 92 % 1028,8 hPa 0,0 l/m 0,0 km/h (0 Bft) N 0,00 h 0,0 UV-I 0 W/m 8,3 C 9,5 C 0,0 km/h (0 Bft)
15.10.2017 00:00 23,5 C 8,7 C 66 % 92 % 1028,7 hPa 0,0 l/m 0,0 km/h (0 Bft) N 0,00 h 0,0 UV-I 0 W/m 7,5 C 8,7 C 0,0 km/h (0 Bft)
15.10.2017 01:00 23,4 C 8,0 C 67 % 93 % 1028,7 hPa 0,0 l/m 0,0 km/h (0 Bft) N 0,00 h 0,0 UV-I 0 W/m 7,0 C 8,0 C 0,0 km/h (0 Bft)
15.10.2017 02:00 23,4 C 7,4 C 67 % 94 % 1028,6 hPa 0,0 l/m 0,0 km/h (0 Bft) N 0,00 h 0,0 UV-I 0 W/m 6,5 C 7,4 C 0,0 km/h (0 Bft)
15.10.2017 03:00 23,3 C 7,0 C 68 % 94 % 1028,3 hPa 0,0 l/m 0,0 km/h (0 Bft) N 0,00 h 0,0 UV-I 0 W/m 6,1 C 7,0 C 0,0 km/h (0 Bft)
15.10.2017 04:00 23,3 C 6,4 C 68 % 94 % 1028,1 hPa 0,0 l/m 0,0 km/h (0 Bft) N 0,00 h 0,0 UV-I 0 W/m 5,5 C 6,4 C 0,0 km/h (0 Bft)
15.10.2017 05:00 23,2 C 5,9 C 68 % 94 % 1027,9 hPa 0,0 l/m 0,0 km/h (0 Bft) N 0,00 h 0,0 UV-I 0 W/m 5,1 C 5,9 C 0,0 km/h (0 Bft)
15.10.2017 06:00 23,1 C 5,6 C 69 % 94 % 1028,0 hPa 0,0 l/m 0,0 km/h (0 Bft) N 0,00 h 0,0 UV-I 0 W/m 4,7 C 5,6 C 0,0 km/h (0 Bft)
15.10.2017 07:00 23,2 C 5,2 C 69 % 94 % 1028,2 hPa 0,0 l/m 0,0 km/h (0 Bft) N 0,00 h 0,0 UV-I 11 W/m 4,4 C 5,2 C 0,0 km/h (0 Bft)
15.10.2017 08:00 23,0 C 5,3 C 69 % 95 % 1028,7 hPa 0,0 l/m 0,0 km/h (0 Bft) N 0,00 h 0,0 UV-I 43 W/m 4,6 C 5,3 C 0,0 km/h (0 Bft)
15.10.2017 09:00 19,3 C 8,4 C 59 % 97 % 1029,3 hPa 0,0 l/m 0,0 km/h (0 Bft) N 0,87 h 0,7 UV-I 212 W/m 7,9 C 8,4 C 0,0 km/h (0 Bft)
15.10.2017 10:00 19,3 C 13,3 C 64 % 87 % 1029,2 hPa 0,0 l/m 0,0 km/h (0 Bft) N 1,00 h 1,5 UV-I 376 W/m 11,2 C 13,3 C 0,0 km/h (0 Bft)
15.10.2017 11:00 21,1 C 17,8 C 62 % 75 % 1029,0 hPa 0,0 l/m 0,9 km/h (0 Bft) S 1,00 h 2,1 UV-I 459 W/m 13,3 C 17,8 C 1,8 km/h (1 Bft)
15.10.2017 12:00 22,3 C 19,4 C 60 % 69 % 1028,3 hPa 0,0 l/m 1,5 km/h (1 Bft) S 1,00 h 2,5 UV-I 514 W/m 13,6 C 19,3 C 4,0 km/h (1 Bft)
15.10.2017 13:00 22,6 C 20,9 C 58 % 63 % 1027,6 hPa 0,0 l/m 1,5 km/h (1 Bft) W-SW 1,00 h 2,5 UV-I 510 W/m 13,6 C 20,9 C 4,2 km/h (1 Bft)
15.10.2017 14:00 23,1 C 21,4 C 58 % 58 % 1026,9 hPa 0,0 l/m 0,6 km/h (0 Bft) S 1,00 h 2,1 UV-I 460 W/m 12,9 C 21,4 C 2,3 km/h (1 Bft)
15.10.2017 15:00 23,4 C 22,1 C 58 % 58 % 1026,3 hPa 0,0 l/m 0,6 km/h (0 Bft) SW 1,00 h 1,4 UV-I 365 W/m 13,4 C 22,1 C 2,9 km/h (1 Bft)
15.10.2017 16:00 23,3 C 22,0 C 57 % 59 % 1025,9 hPa 0,0 l/m 0,5 km/h (0 Bft) S 0,93 h 0,7 UV-I 227 W/m 13,5 C 22,0 C 2,3 km/h (1 Bft)
15.10.2017 17:00 23,1 C 20,6 C 58 % 64 % 1025,6 hPa 0,0 l/m 0,0 km/h (0 Bft) S-SW 0,00 h 0,0 UV-I 61 W/m 13,6 C 20,6 C 0,5 km/h (0 Bft)
15.10.2017 18:00 23,3 C 18,4 C 59 % 71 % 1025,8 hPa 0,0 l/m 0,0 km/h (0 Bft) N 0,00 h 0,0 UV-I 7 W/m 13,0 C 18,4 C 0,0 km/h (0 Bft)
15.10.2017 19:00 23,5 C 15,3 C 62 % 79 % 1026,0 hPa 0,0 l/m 0,0 km/h (0 Bft) N 0,00 h 0,0 UV-I 0 W/m 11,8 C 15,3 C 0,0 km/h (0 Bft)
15.10.2017 20:00 23,5 C 12,8 C 62 % 85 % 1026,2 hPa 0,0 l/m 0,0 km/h (0 Bft) N 0,00 h 0,0 UV-I 0 W/m 10,4 C 12,8 C 0,0 km/h (0 Bft)
15.10.2017 21:00 23,3 C 11,0 C 61 % 88 % 1026,3 hPa 0,0 l/m 0,0 km/h (0 Bft) N 0,00 h 0,0 UV-I 0 W/m 9,1 C 11,0 C 0,0 km/h (0 Bft)
15.10.2017 22:00 23,3 C 9,9 C 62 % 91 % 1026,4 hPa 0,0 l/m 0,0 km/h (0 Bft) N 0,00 h 0,0 UV-I 0 W/m 8,5 C 9,9 C 0,0 km/h (0 Bft)
15.10.2017 23:00 23,4 C 8,9 C 64 % 91 % 1026,6 hPa 0,0 l/m 0,0 km/h (0 Bft) N 0,00 h 0,0 UV-I 0 W/m 7,5 C 8,9 C 0,0 km/h (0 Bft)
Min-Datum _ 15.10.17 09.10.17 15.10.17 15.10.17 10.10.17 - 09.10.17 - - - - 09.10.17 09.10.17 09.10.17
_ Min-Zeit 09:43 06:09 09:07 14:06 06:30 - 00:00 - - - - 06:10 06:10 00:00
Minimum _ 17,8 C 1,7 C 49 % 54 % 1016,9 hPa - 0,0 km/h (0 Bft) - - - - 1,0 C 1,7 C 0,0 km/h (0 Bft)
Max-Datum _ 14.10.17 15.10.17 15.10.17 14.10.17 15.10.17 11.10.17 12.10.17 - 12.10.17 14.10.17 14.10.17 15.10.17 15.10.17 12.10.17
_ Max-Zeit 14:11 15:23 07:58 10:46 09:25 00:33 15:42 - 15:04 12:39 12:41 13:48 15:25 14:51
Maximum _ 23,8 C 22,3 C 70 % 98 % 1029,4 hPa 0,4 l/m 24,1 km/h
W-SW (4 Bft)
- 0,03 h 2,9 UV-I 729 W/m 14,4 C 22,3 C 38,6 km/h
W-SW (5 Bft)
Durchschnitt _ 22,7 C 11,1 C 62 % 88 % 1022,8 hPa #1,0 l/m 1,2 km/h (1 Bft) W-SW #22:29 h 1,1 UV-I 138 W/m 9,1 C 11,1 C 3,2 km/h (1 Bft)